Theta_e
317 314 313 313 314 314 315 316 317 328 323 335 334 334 333 335 338 339 345 346 346 346 345 343 342 342 342 344 346 347 347 347 347 347 346 345 343 341 328 316 313 312 313 313
315 316 315 314 313 314 314 314 314 315 317 333 332 334 333 335 338 339 343 346 347 347 347 346 346 346 346 346 346 346 346 346 347 347 345 342 340 334 319 314 314 313 313 313
316 318 317 317 316 316 315 317 317 317 325 327 333 335 337 336 337 340 341 344 346 346 346 346 347 347 347 347 346 345 345 347 348 346 343 341 338 325 316 315 314 314 314 313
317 317 319 319 318 316 319 315 318 319 321 321 331 326 328 336 337 339 342 343 344 346 346 346 345 345 345 344 343 345 345 347 347 344 344 343 337 321 315 315 315 315 314 314
319 319 318 319 319 316 319 316 317 320 318 319 326 321 321 332 338 338 339 342 343 344 345 345 345 344 344 342 339 339 343 345 345 343 342 338 325 318 315 316 316 316 315 315
317 319 319 319 319 318 318 317 315 313 314 318 318 324 317 321 337 338 338 340 342 343 344 345 345 344 341 340 336 333 336 340 341 339 336 331 324 318 315 316 316 316 316 316
318 319 319 320 321 318 316 316 317 319 318 320 316 317 317 317 318 329 335 338 340 341 342 344 344 342 340 339 336 332 331 332 329 328 329 327 324 318 315 316 316 316 317 316
317 318 320 320 320 319 317 316 317 319 317 316 317 320 320 319 324 328 331 328 330 340 341 343 343 341 336 335 332 328 325 329 330 326 326 325 319 316 316 316 316 317 317 316
316 318 318 321 320 320 318 318 315 315 315 318 316 319 324 325 325 336 335 327 328 339 340 341 342 342 340 338 329 330 322 323 326 324 325 321 317 315 316 315 315 317 317 319
318 319 319 321 320 319 319 316 320 315 321 322 319 321 325 325 325 332 336 336 337 339 339 339 341 340 341 341 335 329 321 319 319 320 320 318 317 315 316 316 316 318 319 320
315 317 319 321 321 319 319 318 315 315 316 319 320 320 317 321 323 329 333 336 337 338 339 340 341 341 343 339 334 328 321 319 318 317 317 318 315 316 318 318 318 320 321 321
317 314 317 318 319 319 319 317 315 318 319 316 317 318 317 320 321 324 332 335 336 336 336 338 340 340 341 338 333 327 322 320 318 317 315 315 318 318 319 319 321 322 322 321
318 317 318 319 318 320 322 319 316 314 314 318 320 320 318 320 321 323 326 332 335 336 337 337 338 340 341 339 334 328 323 318 317 315 316 319 319 320 320 321 322 322 320 317
321 315 317 319 318 319 322 321 318 318 318 319 318 319 320 321 322 323 326 327 328 334 336 336 337 339 340 338 334 329 324 318 317 317 318 319 320 321 321 322 321 320 316 313
317 320 318 319 318 320 322 323 320 321 320 322 322 319 320 320 319 321 323 324 324 326 330 334 337 338 338 336 333 329 326 321 319 320 321 322 322 323 322 322 319 315 313 309
317 320 319 323 322 322 323 322 321 321 321 320 320 320 317 320 322 322 323 323 323 324 326 328 332 336 337 335 332 329 327 323 321 322 323 324 324 323 322 321 316 314 309 307
319 319 320 322 322 323 322 322 322 322 319 320 321 319 318 319 318 320 322 322 323 324 325 326 328 332 334 334 331 328 327 325 323 324 324 324 324 323 320 318 312 309 308 306
318 316 316 319 322 324 320 320 322 322 321 318 319 319 318 320 323 322 323 323 324 324 325 325 327 329 331 330 327 326 326 325 325 325 325 325 324 321 317 312 310 308 307 302
317 317 321 321 321 320 322 323 323 323 322 319 319 320 321 321 323 323 325 324 323 324 325 325 326 327 328 327 325 325 325 325 325 325 325 324 322 318 312 310 309 307 302 303
317 317 321 320 322 324 320 320 323 321 324 322 320 319 320 323 321 319 323 323 324 325 325 326 327 327 327 326 325 325 325 325 325 325 325 323 317 312 310 309 307 303 303 299
320 320 322 318 321 320 319 322 323 325 324 323 323 322 321 320 321 323 323 324 324 326 327 328 328 327 326 325 324 325 325 325 325 325 322 316 312 310 309 308 303 301 297 296
319 320 319 317 320 323 321 322 324 321 323 325 324 324 324 324 324 324 324 324 324 326 328 328 327 326 324 324 324 324 325 325 323 321 315 312 311 310 307 303 299 298 299 299
318 318 319 319 317 316 322 324 324 324 325 325 325 324 324 324 324 324 324 325 326 327 328 328 327 325 325 325 325 325 324 323 319 315 313 311 309 306 302 299 298 300 300 300
317 317 317 319 317 318 323 324 324 324 325 325 325 325 325 325 325 325 325 325 326 326 327 327 326 326 326 325 325 324 322 318 315 313 311 309 307 303 301 300 300 301 301 301
316 316 319 320 319 324 323 321 319 320 322 322 322 323 324 325 325 325 325 325 325 325 326 326 326 327 325 322 321 320 318 315 314 311 309 307 305 302 301 300 301 302 302 302
313 315 318 320 319 319 319 318 317 317 317 318 320 320 320 321 323 325 325 324 324 324 324 326 325 324 322 320 319 318 316 315 312 310 308 306 304 302 301 301 302 302 302 302
Wind_Speed
4 4 5 6 4 5 5 4 6 5 7 7 15 15 11 10 15 19 26 28 26 24 23 22 22 24 26 26 25 23 21 20 19 18 15 12 7 1 3 6 8 9 10 11
6 2 5 5 5 5 6 8 7 4 3 10 3 16 5 8 8 19 24 29 32 29 29 29 28 27 26 25 23 22 22 21 20 16 13 11 6 5 6 8 10 11 9 10
5 4 3 5 5 5 5 4 4 4 3 3 5 5 6 6 14 12 20 30 33 36 36 34 32 30 26 22 21 21 20 19 18 17 14 11 8 10 11 11 9 9 10 10
4 4 2 2 4 7 3 8 4 8 5 4 2 4 5 6 8 9 22 29 36 39 37 36 35 32 29 24 22 20 20 21 22 18 14 8 7 12 13 12 9 9 9 9
5 4 5 4 6 7 8 6 5 2 5 5 1 4 7 4 6 12 21 34 38 44 45 42 38 32 28 23 20 20 20 20 19 16 13 12 13 12 14 12 9 8 6 7
6 2 4 7 3 5 7 7 8 5 3 1 5 6 6 5 11 12 22 34 41 44 47 43 38 33 29 22 17 17 20 20 20 18 16 15 13 13 13 11 8 5 4 6
3 4 4 4 3 4 6 7 2 2 3 5 1 3 9 6 6 9 15 31 40 38 42 47 42 35 30 24 18 9 22 21 21 21 20 18 13 11 10 9 6 3 1 4
3 5 5 4 4 7 5 7 6 7 4 6 2 5 6 7 7 12 23 32 27 38 41 46 41 38 24 15 3 19 26 24 23 23 22 19 16 13 11 8 5 3 3 5
4 6 4 4 3 5 5 4 4 7 4 2 3 6 8 4 6 4 9 11 21 33 38 40 44 39 37 25 19 30 26 24 24 24 23 20 17 15 12 10 8 6 5 6
3 2 4 1 5 5 4 5 3 2 5 4 5 4 5 5 9 5 5 11 18 25 28 34 41 36 33 28 20 25 27 25 24 25 24 21 17 15 13 10 9 8 7 7
6 5 8 2 3 8 3 1 5 5 4 6 3 6 7 8 8 9 11 14 17 21 25 31 36 39 37 33 28 29 29 28 27 26 24 22 19 16 15 12 10 10 10 9
3 5 5 10 2 2 2 6 6 5 5 1 4 6 4 9 8 14 17 18 20 21 23 29 35 38 40 36 32 31 30 30 29 27 24 22 19 18 16 12 12 11 11 9
6 1 2 8 6 2 4 4 4 6 4 7 6 6 3 6 7 15 21 20 23 26 28 31 35 40 43 41 37 33 30 30 28 27 25 22 19 18 16 14 14 13 9 8
9 4 7 7 7 2 3 5 4 5 4 5 7 6 6 7 8 9 14 21 25 26 29 32 35 40 43 44 43 39 33 32 31 29 25 22 20 20 18 16 16 11 8 8
6 5 5 6 7 3 3 4 8 7 5 7 7 9 8 9 8 14 13 16 18 28 32 36 39 42 44 47 46 43 36 33 32 29 26 22 21 20 19 17 14 8 6 9
1 4 6 3 3 6 5 7 5 4 2 6 7 7 9 14 17 21 22 23 20 24 33 39 41 44 47 47 47 45 39 35 33 30 27 24 23 22 19 18 9 7 5 9
4 7 4 5 3 4 7 8 10 6 5 7 7 9 4 6 10 20 26 26 27 30 29 36 44 46 47 47 48 45 41 36 34 32 29 27 26 24 20 12 7 5 6 10
6 6 4 4 2 8 6 3 6 10 6 8 5 6 10 13 16 17 18 19 19 17 20 25 34 41 43 43 42 39 38 38 37 33 30 29 27 22 16 11 8 6 8 5
6 5 2 4 6 5 5 2 5 6 10 7 8 8 10 9 6 17 21 24 22 20 20 22 28 34 36 37 38 33 38 39 38 35 30 29 25 20 14 10 6 7 5 3
5 3 5 4 5 9 6 12 19 4 6 7 11 9 4 4 1 6 15 14 17 18 19 19 22 25 29 29 31 38 40 42 38 32 30 27 22 16 12 7 6 6 5 4
3 2 8 4 6 6 6 5 6 7 8 11 9 6 5 5 9 8 11 14 15 17 18 18 18 20 24 31 36 39 38 38 32 29 28 25 20 14 9 8 8 8 8 7
8 7 5 3 4 9 4 3 6 4 2 1 3 7 8 8 10 12 11 11 11 15 17 16 18 23 28 32 35 36 36 32 29 30 28 23 17 13 10 11 13 15 12 10
5 7 5 9 7 4 1 1 3 4 8 11 14 14 13 13 14 14 14 14 15 15 18 22 22 25 30 30 29 28 30 30 31 30 26 21 17 11 13 16 19 16 12 10
3 0 3 1 1 3 4 2 4 5 6 8 11 12 13 16 15 15 15 15 17 18 20 21 23 29 28 24 24 23 25 29 30 28 25 21 16 15 19 19 16 13 10 7
3 6 1 3 4 2 3 2 5 6 8 10 10 12 13 14 16 17 17 17 17 20 21 24 28 30 28 19 23 22 26 28 27 24 23 20 16 18 24 20 15 12 9 6
4 3 1 3 2 3 12 18 16 21 21 16 16 14 14 14 15 16 17 19 20 21 23 29 35 34 21 22 19 24 29 27 25 25 23 20 18 21 22 20 16 13 11 8
Wind_Direction
21 79 182 185 173 143 113 123 180 233 216 144 215 232 254 227 198 190 191 187 185 187 188 193 200 202 199 197 202 209 215 218 222 225 220 209 185 199 138 105 91 86 74 64
22 260 219 144 152 156 171 192 217 222 268 185 155 237 249 211 223 201 197 192 191 186 187 189 193 199 203 205 207 214 220 225 221 224 210 197 167 166 135 115 108 96 85 71
159 231 142 163 158 179 207 203 199 191 90 29 110 310 201 228 214 220 219 213 204 200 196 194 197 202 207 212 221 226 224 219 211 206 201 189 172 164 152 135 127 113 89 69
229 266 252 148 244 163 222 205 168 131 130 211 174 260 254 214 209 203 217 215 215 211 209 204 205 207 210 211 217 220 218 215 208 208 226 232 207 170 156 153 138 108 86 65
241 192 230 257 221 174 225 137 163 108 147 99 225 79 270 146 206 223 221 222 223 221 214 214 211 210 202 200 205 206 212 213 214 214 217 205 183 172 168 157 133 113 86 55
229 246 230 217 153 180 144 68 48 53 82 76 224 146 279 196 212 220 223 229 229 225 219 217 214 205 193 195 204 211 210 211 212 209 200 199 195 186 175 165 155 134 76 33
308 236 265 212 109 51 66 73 6 346 355 221 107 90 236 227 241 233 239 235 234 227 221 216 215 199 200 194 197 246 222 212 208 198 194 195 198 192 185 186 183 166 359 347
177 312 188 177 196 177 175 155 155 194 200 240 69 232 250 208 215 253 258 256 246 223 221 220 210 198 192 178 168 247 215 212 209 202 201 201 200 197 193 196 201 213 277 313
171 271 279 225 161 134 175 181 168 102 16 48 233 290 312 285 298 321 285 257 224 212 216 214 210 199 196 197 234 225 221 212 211 207 205 204 200 197 197 198 211 227 268 293
189 289 236 208 100 37 158 154 83 12 138 230 284 278 230 254 255 263 237 197 196 204 210 209 212 199 205 218 211 217 219 215 209 205 205 206 204 198 198 208 219 230 244 263
140 145 265 343 202 181 139 191 54 116 128 173 205 261 217 220 218 227 236 225 209 212 217 218 218 216 219 212 206 212 211 209 208 205 204 203 198 198 202 208 219 239 254 261
190 154 234 216 216 213 203 172 141 129 222 201 156 264 225 231 237 223 240 234 226 225 225 224 223 218 214 215 210 212 210 205 207 205 199 195 197 201 204 214 223 238 250 274
179 140 345 331 353 351 199 193 123 112 89 191 153 256 246 258 250 244 238 234 232 230 226 225 223 223 219 220 216 213 210 206 205 201 197 196 200 205 213 221 230 234 250 273
140 141 164 198 223 200 195 188 168 134 129 193 210 238 274 254 228 229 233 245 244 239 235 230 226 226 223 222 218 213 207 205 204 202 201 201 206 208 215 225 226 239 260 300
131 200 180 240 234 220 257 224 174 190 200 183 235 192 242 243 231 248 273 277 256 237 233 233 232 229 227 224 219 213 206 205 203 202 202 206 207 213 217 223 219 228 280 306
0 203 162 261 273 227 256 260 226 246 222 271 264 272 228 273 284 282 278 281 258 245 240 236 233 232 231 227 222 212 205 201 201 203 206 207 210 215 219 215 225 274 281 323
159 142 127 238 254 331 290 195 207 209 197 192 225 234 259 271 270 272 281 278 272 261 254 243 234 231 231 228 226 212 202 199 200 203 203 208 211 209 205 216 224 241 295 317
147 130 135 195 65 246 250 228 191 205 221 224 260 244 235 245 274 287 287 279 280 276 272 259 243 235 231 227 223 211 199 199 199 200 205 207 205 203 201 206 220 262 299 295
185 134 156 166 202 298 316 225 193 188 255 216 222 241 257 270 281 280 276 268 270 272 268 263 250 238 229 223 216 199 196 198 197 198 202 199 200 193 195 203 234 280 255 189
108 62 172 142 191 223 214 224 231 94 262 243 215 240 230 157 250 256 304 307 282 287 282 268 252 239 228 214 203 195 193 193 193 196 195 193 186 187 190 213 261 230 190 214
146 189 212 179 240 283 244 255 172 208 257 245 253 250 179 203 236 285 304 319 309 284 277 264 247 230 210 197 192 189 189 189 190 189 183 179 181 183 202 236 199 181 159 145
181 173 190 121 228 286 204 63 168 240 223 295 269 257 241 262 287 289 282 278 280 267 255 241 218 201 190 188 187 186 183 185 181 177 177 178 181 194 213 177 167 149 129 109
237 197 192 182 207 226 203 108 273 249 255 269 274 281 279 278 279 274 263 251 241 239 226 220 208 188 179 181 184 197 175 174 175 176 177 179 185 185 174 168 156 145 130 107
317 301 222 51 310 248 262 245 268 263 267 282 269 278 283 279 280 266 256 246 236 230 223 210 184 173 172 177 175 179 182 181 179 178 178 180 183 172 171 166 158 155 146 130
275 335 242 292 279 320 192 140 8 335 315 302 295 291 291 288 281 269 259 244 235 225 211 196 178 168 161 178 197 186 199 185 182 181 181 181 181 178 177 178 170 162 155 147
246 264 293 249 2 10 297 302 304 305 297 302 297 299 298 294 284 277 256 244 230 216 196 180 173 171 188 173 181 198 197 193 190 186 187 185 178 181 184 180 178 180 180 173